TUP9667 UUEE-UMKK

Flight info

Callsign TUP9667
Flight time N/A
Altitude 32000
Route K0872F320 TOKNU L4 NUDKO T561 ODATI P145 ATLUM DCT PISIS DCT ARANS/N0474F320 DCT PIDIN DCT PISIM DCT PIRUX DCT PIVAX DCT GARSO DCT AGONA N5 TURIP
Aircraft B752/M-SDE2E3FGHIJ3J4J7RWXY/LB1

Departure

Time N/A
Airport Sheremetyevo International Airport (UUEE)

Arrival

Time 2026-04-27 19:40
Airport Khrabrovo Airport (UMKK)
Time Latitude Longitude Altitude Speed Heading
2026-04-27 17:49 56.35341 36.40517 21184 ft 359 kts 320°
2026-04-27 17:49 56.37191 36.37483 21692 ft 360 kts 321°
2026-04-27 17:49 56.39040 36.34446 22128 ft 364 kts 320°
2026-04-27 17:49 56.40925 36.31347 22595 ft 366 kts 320°
2026-04-27 17:50 56.42179 36.29282 22870 ft 369 kts 320°
2026-04-27 17:50 56.46604 36.21980 23880 ft 375 kts 320°
2026-04-27 17:50 56.48550 36.18762 24297 ft 378 kts 320°
2026-04-27 17:51 56.50502 36.15529 24724 ft 380 kts 320°
2026-04-27 17:51 56.52451 36.12297 25029 ft 384 kts 321°
2026-04-27 17:51 56.54430 36.09009 25432 ft 386 kts 320°
2026-04-27 17:51 56.56416 36.05705 25756 ft 390 kts 320°
2026-04-27 17:52 56.58411 36.02382 26066 ft 393 kts 320°
2026-04-27 17:52 56.60426 35.99018 26397 ft 396 kts 320°
2026-04-27 17:52 56.62436 35.95660 26731 ft 399 kts 320°
2026-04-27 17:52 56.63794 35.93386 26926 ft 401 kts 320°
2026-04-27 17:53 56.66531 35.88799 27385 ft 404 kts 320°
2026-04-27 17:53 56.68600 35.85325 27643 ft 407 kts 320°
2026-04-27 17:53 56.70681 35.81824 27931 ft 409 kts 320°
2026-04-27 17:53 56.72787 35.78276 28188 ft 413 kts 320°
2026-04-27 17:54 56.74871 35.74761 28447 ft 414 kts 320°
2026-04-27 17:54 56.77001 35.71161 28711 ft 417 kts 320°
2026-04-27 17:54 56.79119 35.67576 28964 ft 419 kts 320°
2026-04-27 17:54 56.81263 35.63942 29192 ft 422 kts 319°
2026-04-27 17:55 56.83406 35.60302 29453 ft 424 kts 320°
2026-04-27 17:55 56.85556 35.56646 29663 ft 427 kts 319°
2026-04-27 17:55 56.87730 35.52941 29917 ft 429 kts 320°
2026-04-27 17:55 56.89893 35.49250 30155 ft 430 kts 320°
2026-04-27 17:56 56.92096 35.45483 30333 ft 434 kts 320°
2026-04-27 17:56 56.94298 35.41713 30558 ft 436 kts 319°
2026-04-27 17:56 56.96510 35.37920 30720 ft 439 kts 319°
2026-04-27 17:56 56.98746 35.34077 30999 ft 439 kts 319°
2026-04-27 17:57 57.00980 35.30230 31154 ft 439 kts 319°
2026-04-27 17:57 57.03188 35.26424 31287 ft 440 kts 319°
2026-04-27 17:57 57.07648 35.18712 31397 ft 439 kts 319°
2026-04-27 17:58 57.12103 35.10986 31418 ft 440 kts 319°
2026-04-27 17:58 57.16531 35.03278 31445 ft 439 kts 319°
2026-04-27 17:59 57.20961 34.95539 31437 ft 440 kts 319°
2026-04-27 17:59 57.25382 34.87789 31436 ft 442 kts 319°
2026-04-27 18:00 57.29836 34.79955 31447 ft 442 kts 319°
2026-04-27 18:00 57.34271 34.72128 31448 ft 442 kts 319°
2026-04-27 18:01 57.38679 34.64320 31462 ft 442 kts 319°
2026-04-27 18:01 57.43120 34.56425 31471 ft 443 kts 319°
2026-04-27 18:02 57.47568 34.48491 31472 ft 444 kts 319°
2026-04-27 18:02 57.51991 34.40573 31485 ft 445 kts 319°
2026-04-27 18:03 57.56443 34.32574 31495 ft 447 kts 318°
2026-04-27 18:03 57.60911 34.24518 31504 ft 447 kts 318°
2026-04-27 18:04 57.65373 34.16444 31508 ft 448 kts 318°
2026-04-27 18:04 57.69828 34.08352 31515 ft 449 kts 318°
2026-04-27 18:05 57.74296 34.00208 31519 ft 450 kts 318°
2026-04-27 18:05 57.78770 33.92023 31529 ft 451 kts 318°
2026-04-27 18:06 57.83250 33.83799 31535 ft 452 kts 318°
2026-04-27 18:06 57.87481 33.75093 31545 ft 455 kts 308°
2026-04-27 18:07 57.91036 33.65212 31541 ft 457 kts 307°
2026-04-27 18:07 57.94517 33.55315 31545 ft 457 kts 306°
2026-04-27 18:08 57.98010 33.45260 31561 ft 459 kts 306°
2026-04-27 18:08 58.01496 33.35151 31563 ft 461 kts 306°
2026-04-27 18:09 58.04963 33.25037 31574 ft 461 kts 305°
2026-04-27 18:09 58.08426 33.14891 31572 ft 462 kts 305°
2026-04-27 18:10 58.11888 33.04754 31593 ft 460 kts 305°
2026-04-27 18:10 58.15357 32.94590 31600 ft 460 kts 305°
2026-04-27 18:11 58.18816 32.84410 31610 ft 462 kts 305°
2026-04-27 18:11 58.22279 32.74173 31631 ft 463 kts 305°
2026-04-27 18:12 58.25725 32.63944 31632 ft 463 kts 305°
2026-04-27 18:12 58.29168 32.53679 31645 ft 463 kts 305°
2026-04-27 18:13 58.32621 32.43338 31656 ft 463 kts 305°
2026-04-27 18:13 58.36035 32.33069 31663 ft 462 kts 304°
2026-04-27 18:14 58.39476 32.22677 31678 ft 463 kts 304°
2026-04-27 18:14 58.42881 32.12344 31680 ft 464 kts 303°
2026-04-27 18:15 58.46268 32.02023 31692 ft 464 kts 303°
2026-04-27 18:15 58.49667 31.91622 31690 ft 464 kts 303°
2026-04-27 18:16 58.53075 31.81141 31697 ft 464 kts 303°
2026-04-27 18:16 58.56459 31.70691 31702 ft 464 kts 303°
2026-04-27 18:17 58.59849 31.60178 31709 ft 464 kts 303°
2026-04-27 18:17 58.63213 31.49697 31714 ft 465 kts 303°
2026-04-27 18:18 58.66598 31.39110 31719 ft 464 kts 303°
2026-04-27 18:18 58.69946 31.28601 31729 ft 465 kts 302°
2026-04-27 18:19 58.73306 31.18003 31726 ft 465 kts 302°
2026-04-27 18:19 58.76669 31.07349 31728 ft 465 kts 302°
2026-04-27 18:20 58.80014 30.96776 31735 ft 465 kts 302°
2026-04-27 18:20 58.83377 30.86149 31739 ft 464 kts 302°
2026-04-27 18:21 58.86710 30.75573 31741 ft 465 kts 302°
2026-04-27 18:21 58.90059 30.64889 31748 ft 466 kts 302°
2026-04-27 18:22 58.93389 30.54186 31762 ft 465 kts 302°
2026-04-27 18:22 58.96716 30.43443 31762 ft 465 kts 302°
2026-04-27 18:23 59.00010 30.32755 31770 ft 464 kts 301°
2026-04-27 18:23 59.03309 30.22004 31769 ft 463 kts 301°
2026-04-27 18:24 59.06578 30.11300 31778 ft 465 kts 301°
2026-04-27 18:24 59.09861 30.00503 31780 ft 464 kts 301°
2026-04-27 18:25 59.13123 29.89721 31774 ft 464 kts 301°
2026-04-27 18:25 59.16372 29.78849 31793 ft 464 kts 301°
2026-04-27 18:26 59.19600 29.67983 31798 ft 463 kts 301°
2026-04-27 18:26 59.22810 29.57126 31792 ft 464 kts 301°
2026-04-27 18:27 59.26024 29.46202 31808 ft 464 kts 301°
2026-04-27 18:27 59.29228 29.35262 31796 ft 465 kts 301°
2026-04-27 18:28 59.32434 29.24262 31792 ft 465 kts 300°
2026-04-27 18:28 59.35607 29.13305 31810 ft 465 kts 300°
2026-04-27 18:29 59.38775 29.02313 31813 ft 465 kts 300°
2026-04-27 18:29 59.41935 28.91294 31827 ft 465 kts 300°
2026-04-27 18:30 59.45085 28.80259 31809 ft 465 kts 300°
2026-04-27 18:30 59.48222 28.69215 31833 ft 464 kts 300°
2026-04-27 18:31 59.51362 28.58111 31844 ft 464 kts 300°
2026-04-27 18:31 59.54465 28.47070 31841 ft 463 kts 300°
2026-04-27 18:32 59.57569 28.35963 31853 ft 463 kts 300°
2026-04-27 18:32 59.60660 28.24846 31865 ft 462 kts 300°
2026-04-27 18:33 59.63729 28.13756 31861 ft 461 kts 300°
2026-04-27 18:33 59.66777 28.02685 31869 ft 461 kts 300°
2026-04-27 18:34 59.69833 27.91535 31874 ft 461 kts 300°
2026-04-27 18:34 59.72865 27.80415 31886 ft 461 kts 300°
2026-04-27 18:35 59.75923 27.69248 31895 ft 461 kts 303°
2026-04-27 18:35 59.79797 27.59240 31897 ft 459 kts 311°
2026-04-27 18:36 59.83861 27.49482 31901 ft 458 kts 311°
2026-04-27 18:36 59.87924 27.39725 31901 ft 458 kts 311°
2026-04-27 18:37 59.91971 27.29979 31912 ft 458 kts 310°
2026-04-27 18:37 59.95996 27.20254 31913 ft 457 kts 311°
2026-04-27 18:38 59.99939 27.10432 31921 ft 457 kts 305°
2026-04-27 18:38 60.02596 26.98852 31936 ft 460 kts 286°
2026-04-27 18:39 60.03204 26.86145 31932 ft 467 kts 267°
2026-04-27 18:39 60.02127 26.73316 31919 ft 469 kts 261°
2026-04-27 18:40 60.00810 26.60552 31921 ft 469 kts 260°
2026-04-27 18:40 59.99437 26.47921 31917 ft 469 kts 260°
2026-04-27 18:41 59.98021 26.35217 31935 ft 469 kts 260°
2026-04-27 18:41 59.96592 26.22588 31957 ft 469 kts 259°
2026-04-27 18:42 59.95381 26.12008 31958 ft 469 kts 259°
2026-04-27 18:42 59.93680 25.97292 31963 ft 470 kts 259°
2026-04-27 18:43 59.92197 25.84593 31970 ft 469 kts 260°
2026-04-27 18:43 59.90720 25.72052 31969 ft 468 kts 260°
2026-04-27 18:44 59.89220 25.59437 31969 ft 468 kts 260°
2026-04-27 18:44 59.87711 25.46853 31971 ft 468 kts 260°
2026-04-27 18:45 59.86185 25.34254 31971 ft 468 kts 259°
2026-04-27 18:45 59.84654 25.21711 31979 ft 469 kts 259°
2026-04-27 18:46 59.83109 25.09163 31977 ft 469 kts 260°
2026-04-27 18:46 59.81557 24.96669 31984 ft 469 kts 260°
2026-04-27 18:47 59.79984 24.84120 31992 ft 468 kts 260°
2026-04-27 18:47 59.78406 24.71627 31995 ft 468 kts 260°
2026-04-27 18:48 59.76820 24.59184 32003 ft 468 kts 260°
2026-04-27 18:48 59.75226 24.46778 32018 ft 468 kts 260°
2026-04-27 18:49 59.73400 24.34367 32024 ft 468 kts 257°
2026-04-27 18:49 59.71539 24.22105 32027 ft 469 kts 257°
2026-04-27 18:50 59.69661 24.09814 32039 ft 468 kts 257°
2026-04-27 18:50 59.67765 23.97489 32049 ft 467 kts 257°
2026-04-27 18:51 59.65872 23.85265 32049 ft 467 kts 258°
2026-04-27 18:51 59.63965 23.73034 32055 ft 467 kts 258°
2026-04-27 18:52 59.62047 23.60826 32056 ft 467 kts 258°
2026-04-27 18:53 59.59153 23.42570 32061 ft 467 kts 258°
2026-04-27 18:53 59.57201 23.30356 32062 ft 467 kts 257°
2026-04-27 18:54 59.55218 23.18251 32069 ft 469 kts 254°
2026-04-27 18:54 59.52527 23.06534 32071 ft 470 kts 250°
2026-04-27 18:55 59.49745 22.94853 32077 ft 471 kts 250°
2026-04-27 18:55 59.46953 22.83274 32082 ft 470 kts 250°
2026-04-27 18:56 59.44159 22.71763 32090 ft 471 kts 250°
2026-04-27 18:56 59.41341 22.60226 32101 ft 470 kts 251°
2026-04-27 18:57 59.38512 22.48711 32110 ft 470 kts 251°
2026-04-27 18:57 59.35677 22.37232 32121 ft 470 kts 251°
2026-04-27 18:58 59.32814 22.25700 32119 ft 470 kts 250°
2026-04-27 18:58 59.29970 22.14306 32131 ft 470 kts 250°
2026-04-27 18:59 59.27101 22.02867 32130 ft 469 kts 250°
2026-04-27 18:59 59.24222 21.91453 32135 ft 468 kts 251°
2026-04-27 19:00 59.21343 21.80093 32144 ft 466 kts 251°
2026-04-27 19:00 59.18477 21.68841 32139 ft 468 kts 251°
2026-04-27 19:01 59.15581 21.57533 32141 ft 467 kts 251°
2026-04-27 19:01 59.12677 21.46248 32145 ft 466 kts 251°
2026-04-27 19:02 59.09766 21.34993 32151 ft 467 kts 251°
2026-04-27 19:02 59.06311 21.24185 32166 ft 482 kts 236°
2026-04-27 19:03 59.01174 21.15586 32174 ft 500 kts 217°
2026-04-27 19:03 58.94751 21.10099 32185 ft 512 kts 203°
2026-04-27 19:04 58.88038 21.05764 32155 ft 510 kts 204°
2026-04-27 19:04 58.81285 21.01428 32153 ft 512 kts 204°
2026-04-27 19:05 58.74589 20.97159 32182 ft 511 kts 204°
2026-04-27 19:05 58.67873 20.92893 32191 ft 512 kts 204°
2026-04-27 19:06 58.61104 20.88615 32200 ft 512 kts 204°
2026-04-27 19:06 58.54393 20.84392 32206 ft 509 kts 204°
2026-04-27 19:07 58.47672 20.80176 32192 ft 511 kts 204°
2026-04-27 19:07 58.40917 20.75958 32203 ft 512 kts 204°
2026-04-27 19:08 58.34208 20.71789 32200 ft 509 kts 205°
2026-04-27 19:08 58.27520 20.67645 32221 ft 509 kts 205°
2026-04-27 19:09 58.20815 20.63507 32215 ft 509 kts 205°
2026-04-27 19:09 58.14101 20.59382 32217 ft 507 kts 205°
2026-04-27 19:10 58.07416 20.55288 32209 ft 508 kts 205°
2026-04-27 19:10 58.00673 20.51178 32228 ft 509 kts 206°
2026-04-27 19:11 57.94006 20.47131 32224 ft 506 kts 206°
2026-04-27 19:11 57.87328 20.43089 32202 ft 506 kts 205°
2026-04-27 19:12 57.80612 20.39044 32192 ft 506 kts 206°
2026-04-27 19:12 57.73939 20.35039 32213 ft 505 kts 206°
2026-04-27 19:13 57.67267 20.31047 32228 ft 507 kts 205°
2026-04-27 19:13 57.60583 20.27067 32225 ft 506 kts 205°
2026-04-27 19:14 57.53863 20.23083 32240 ft 505 kts 205°
2026-04-27 19:14 57.47187 20.19135 32240 ft 505 kts 205°
2026-04-27 19:15 57.40516 20.15208 32244 ft 505 kts 205°
2026-04-27 19:15 57.33600 20.12550 32246 ft 517 kts 189°
2026-04-27 19:16 57.26453 20.13362 32249 ft 511 kts 176°
2026-04-27 19:16 57.19468 20.15000 31116 ft 509 kts 177°
2026-04-27 19:16 57.15987 20.15813 30360 ft 511 kts 177°
2026-04-27 19:17 57.12437 20.16643 29559 ft 512 kts 177°
2026-04-27 19:17 57.08920 20.17464 28778 ft 513 kts 177°
2026-04-27 19:17 57.05399 20.18285 27885 ft 516 kts 176°
2026-04-27 19:17 57.01872 20.19112 27221 ft 513 kts 176°
2026-04-27 19:18 56.98328 20.19939 26537 ft 511 kts 177°
2026-04-27 19:18 56.94864 20.20748 25995 ft 505 kts 177°
2026-04-27 19:18 56.91385 20.21559 25591 ft 493 kts 177°
2026-04-27 19:18 56.88006 20.22338 25231 ft 506 kts 177°
2026-04-27 19:19 56.84433 20.23156 24863 ft 524 kts 176°
2026-04-27 19:19 56.80837 20.23990 24506 ft 524 kts 176°
2026-04-27 19:19 56.77235 20.24825 24138 ft 518 kts 176°
2026-04-27 19:19 56.73667 20.25649 23772 ft 515 kts 176°
2026-04-27 19:20 56.70156 20.26456 23409 ft 513 kts 176°
2026-04-27 19:20 56.66647 20.27260 23048 ft 510 kts 176°
2026-04-27 19:20 56.63155 20.28061 22689 ft 507 kts 176°
2026-04-27 19:20 56.59655 20.28860 22326 ft 506 kts 176°
2026-04-27 19:21 56.56155 20.29657 21965 ft 505 kts 176°
2026-04-27 19:21 56.52708 20.30443 21607 ft 501 kts 176°
2026-04-27 19:21 56.49271 20.31223 21246 ft 499 kts 176°
2026-04-27 19:21 56.45841 20.32002 20888 ft 496 kts 176°
2026-04-27 19:22 56.42456 20.32768 20536 ft 494 kts 176°
2026-04-27 19:22 56.39035 20.33541 20180 ft 491 kts 176°
2026-04-27 19:22 56.35692 20.34295 19830 ft 489 kts 175°
2026-04-27 19:22 56.32305 20.35057 19475 ft 488 kts 176°
2026-04-27 19:23 56.28947 20.35812 19122 ft 485 kts 176°
2026-04-27 19:23 56.25631 20.36556 18775 ft 483 kts 175°
2026-04-27 19:23 56.22315 20.37299 18447 ft 480 kts 175°
2026-04-27 19:23 56.19029 20.38033 18113 ft 476 kts 175°
2026-04-27 19:24 56.15779 20.38761 17792 ft 471 kts 175°
2026-04-27 19:24 56.12511 20.39489 17500 ft 468 kts 175°
2026-04-27 19:24 56.09296 20.40202 17218 ft 466 kts 175°
2026-04-27 19:24 56.06116 20.40910 16937 ft 463 kts 175°
2026-04-27 19:25 56.02904 20.41622 16649 ft 460 kts 175°
2026-04-27 19:25 55.99775 20.42315 16366 ft 456 kts 175°
2026-04-27 19:25 55.96655 20.43004 16086 ft 454 kts 175°
2026-04-27 19:25 55.93510 20.43697 15798 ft 451 kts 175°
2026-04-27 19:26 55.90406 20.44381 15511 ft 448 kts 175°
2026-04-27 19:26 55.87319 20.45060 15201 ft 445 kts 175°
2026-04-27 19:26 55.84286 20.45727 14895 ft 442 kts 175°
2026-04-27 19:26 55.81260 20.46389 14584 ft 439 kts 175°
2026-04-27 19:27 55.78232 20.47051 14277 ft 436 kts 175°
2026-04-27 19:27 55.75223 20.47708 13971 ft 434 kts 175°
2026-04-27 19:27 55.72286 20.48351 13658 ft 421 kts 175°
2026-04-27 19:27 55.69406 20.48981 13345 ft 410 kts 174°
2026-04-27 19:28 55.66645 20.49581 13033 ft 394 kts 174°
2026-04-27 19:28 55.63974 20.50161 12721 ft 389 kts 174°
2026-04-27 19:28 55.61247 20.50749 12424 ft 396 kts 174°
2026-04-27 19:28 55.58537 20.51337 12148 ft 393 kts 174°
2026-04-27 19:29 55.55831 20.51922 11892 ft 391 kts 174°
2026-04-27 19:29 55.53126 20.52506 11635 ft 389 kts 174°
2026-04-27 19:29 55.50441 20.53086 11378 ft 386 kts 174°
2026-04-27 19:29 55.47829 20.53649 11233 ft 383 kts 174°
2026-04-27 19:30 55.45164 20.54222 11241 ft 384 kts 174°
2026-04-27 19:30 55.42517 20.54790 11235 ft 387 kts 174°
2026-04-27 19:30 55.39864 20.55346 11229 ft 384 kts 175°
2026-04-27 19:30 55.37190 20.55589 11238 ft 384 kts 180°
2026-04-27 19:31 55.34543 20.55765 11231 ft 384 kts 179°
2026-04-27 19:31 55.31922 20.56218 11181 ft 368 kts 167°
2026-04-27 19:31 55.29591 20.57725 11154 ft 350 kts 151°
2026-04-27 19:31 55.27478 20.59651 11140 ft 334 kts 150°
2026-04-27 19:32 55.25435 20.61530 10615 ft 335 kts 149°
2026-04-27 19:32 55.23363 20.63473 9748 ft 346 kts 149°
2026-04-27 19:32 55.21231 20.65488 8856 ft 351 kts 150°
2026-04-27 19:32 55.19096 20.67508 8092 ft 348 kts 149°
2026-04-27 19:33 55.17025 20.69467 7337 ft 336 kts 149°
2026-04-27 19:33 55.15665 20.70755 6845 ft 329 kts 149°
2026-04-27 19:33 55.13054 20.73227 5869 ft 317 kts 149°
2026-04-27 19:33 55.11138 20.75041 5130 ft 310 kts 149°
2026-04-27 19:34 55.09278 20.76800 4407 ft 305 kts 149°
2026-04-27 19:34 55.07429 20.78546 3688 ft 300 kts 149°
2026-04-27 19:34 55.05625 20.80248 3067 ft 292 kts 149°
2026-04-27 19:34 55.03881 20.81889 2718 ft 276 kts 149°
2026-04-27 19:35 55.02248 20.83425 2440 ft 261 kts 149°
2026-04-27 19:35 55.00690 20.84891 2275 ft 249 kts 149°
2026-04-27 19:35 54.99163 20.86244 2109 ft 244 kts 160°
2026-04-27 19:35 54.97528 20.86470 2025 ft 232 kts 196°
2026-04-27 19:36 54.96263 20.85307 1990 ft 208 kts 233°
2026-04-27 19:36 54.95532 20.83421 1988 ft 174 kts 248°
2026-04-27 19:36 54.94931 20.81687 1965 ft 166 kts 246°
2026-04-27 19:36 54.94326 20.79906 2023 ft 175 kts 251°
2026-04-27 19:37 54.93844 20.78026 2039 ft 165 kts 256°
2026-04-27 19:37 54.93385 20.76151 1877 ft 172 kts 255°
2026-04-27 19:37 54.92902 20.74313 1614 ft 159 kts 253°
2026-04-27 19:37 54.92468 20.72658 1373 ft 143 kts 255°
2026-04-27 19:38 54.92083 20.71153 1173 ft 135 kts 255°
2026-04-27 19:38 54.91697 20.69627 1030 ft 141 kts 253°
2026-04-27 19:38 54.91376 20.68379 874 ft 142 kts 253°
2026-04-27 19:38 54.90975 20.66842 643 ft 139 kts 252°
2026-04-27 19:39 54.90563 20.65322 427 ft 139 kts 251°
2026-04-27 19:39 54.90184 20.63800 279 ft 138 kts 252°
2026-04-27 19:39 54.89786 20.62279 104 ft 135 kts 252°
2026-04-27 19:39 54.89414 20.60823 54 ft 124 kts 249°
2026-04-27 19:40 54.89139 20.59783 52 ft 63 kts 255°
2026-04-27 19:40 54.89034 20.59357 51 ft 18 kts 245°
2026-04-27 19:40 54.88959 20.59193 51 ft 16 kts 218°
2026-04-27 19:40 54.88880 20.59090 51 ft 6 kts 217°
2026-04-27 19:41 54.88842 20.59042 51 ft 6 kts 217°
2026-04-27 19:41 54.88803 20.58991 51 ft 6 kts 215°
2026-04-27 19:41 54.88763 20.58944 51 ft 6 kts 217°
2026-04-27 19:41 54.88735 20.58881 51 ft 6 kts 244°
2026-04-27 19:42 54.88715 20.58807 51 ft 6 kts 245°
2026-04-27 19:42 54.88689 20.58744 51 ft 5 kts 211°
2026-04-27 19:42 54.88652 20.58749 51 ft 5 kts 152°
2026-04-27 19:42 54.88621 20.58748 51 ft 4 kts 210°
2026-04-27 19:43 54.88598 20.58695 51 ft 6 kts 245°
2026-04-27 19:43 54.88578 20.58621 51 ft 6 kts 245°
2026-04-27 19:43 54.88558 20.58546 51 ft 6 kts 245°
2026-04-27 19:43 54.88538 20.58470 51 ft 6 kts 246°
2026-04-27 19:44 54.88518 20.58394 51 ft 6 kts 245°
2026-04-27 19:44 54.88498 20.58319 51 ft 6 kts 246°
2026-04-27 19:44 54.88479 20.58244 51 ft 6 kts 246°
2026-04-27 19:44 54.88459 20.58169 51 ft 6 kts 246°
2026-04-27 19:45 54.88440 20.58094 51 ft 6 kts 245°
2026-04-27 19:45 54.88420 20.58018 51 ft 5 kts 244°
2026-04-27 19:45 54.88405 20.58000 51 ft 3 kts 191°
2026-04-27 19:45 54.88379 20.58008 51 ft 4 kts 153°
2026-04-27 19:46 54.88358 20.58027 51 ft 2 kts 154°
2026-04-27 19:46 54.88354 20.58030 51 ft 0 kts 154°